User: anonymous   Login
Location: Unspecified
(0.0000°N, 0.0000°E)
Time: 19:12:53
(UTC+01:00)
Language:

ARIANE 5 R/B - Orbit

View from above orbital plane
View from above orbital plane
View from above satellite
View from above satellite

Ground track
Ground track

The orbit data is extracted from the following two-line orbital elements,

1 29646U 06054D   14302.65842329  .00009552  00000-0  23873-2 0  7704
2 29646 002.8591 044.4477 7147675 158.0369 293.4650 02.45167253 67796
Epoch (UTC): 29 October 2014 15:48:07
Eccentricity: 0.7147675
inclination: 2.8591°
perigee height: 248 km
apogee height: 33459 km
right ascension of ascending node: 44.4477°
argument of perigee: 158.0369°
revolutions per day: 2.45167253
mean anomaly at epoch: 293.4650°
orbit number at epoch: 6779

The dashed part of the orbit path shows where the satellite is in the earth's shadow,  

DLR